SCP
0 0 0 0 0 0 0 0 1 1 1 1 1 1 1 1 0 0 1 0 0 -0
0 0 0 0 0 0 0 0 0 0 0 0 1 1 1 1 1 1 1 1 1 1
0 0 0 0 0 0 0 0 0 0 0 0 0 0 0 1 1 1 1 1 1 1
0 0 0 0 0 0 0 0 0 0 0 0 0 0 0 0 0 1 1 1 1 1
0 0 0 0 0 0 0 0 0 0 0 0 0 0 0 0 0 0 1 1 1 1
0 0 0 0 0 0 0 0 0 0 0 0 0 0 0 0 0 0 0 1 1 1
-0 -0 -0 0 0 0 0 0 0 0 0 0 0 0 0 0 0 0 0 0 0 1
-0 -0 -0 -0 0 0 0 0 0 0 0 0 0 0 0 0 0 0 0 0 0 0
-0 -0 -0 -0 -0 0 0 0 0 0 0 0 0 0 0 0 0 0 0 0 0 0
-0 -0 -0 -0 -0 0 0 0 0 0 0 0 0 0 0 0 0 0 0 0 0 0
-0 -0 -0 -0 -0 0 0 0 0 0 0 0 0 0 0 0 0 0 0 0 0 0
0 -0 -0 -0 0 0 0 0 0 0 0 0 0 0 0 0 0 0 0 0 0 0
0 0 0 0 0 0 0 0 0 0 0 0 0 0 0 0 0 0 0 0 0 0
0 0 0 0 0 0 0 0 0 0 0 0 0 0 0 0 0 0 0 0 0 0
Wind_Speed_500mb
29 30 29 26 17 13 13 11 5 3 4 6 9 16 23 23 37 63 75 76 78 80
36 33 28 17 16 10 13 10 6 6 2 2 1 7 15 24 33 40 46 50 51 53
39 32 28 21 9 6 3 4 1 5 5 3 2 4 6 16 28 37 45 46 42 44
38 35 31 25 14 10 9 7 1 6 10 11 9 9 10 13 16 21 28 38 45 48
44 38 36 27 24 23 15 13 8 6 6 7 5 7 7 8 13 16 23 26 32 33
38 35 33 32 29 25 21 22 11 9 8 12 6 9 7 8 10 11 15 23 26 30
28 22 18 20 20 19 24 33 26 19 11 13 9 13 9 9 11 9 10 15 18 23
23 19 21 20 19 19 19 19 20 20 17 14 8 19 19 15 13 13 12 13 16 18
25 26 26 25 21 22 21 20 19 19 20 21 15 31 24 24 23 17 17 16 19 18
28 28 31 30 26 24 27 25 23 22 22 20 19 34 33 32 30 29 23 24 24 24
32 29 29 29 28 28 28 29 25 23 23 22 18 27 24 31 38 35 32 30 29 31
34 33 33 32 32 32 31 29 28 26 25 23 23 29 24 26 24 22 28 32 34 35
34 35 38 39 38 36 30 29 29 29 28 27 28 31 34 30 22 24 25 26 26 31
37 36 36 37 34 32 30 28 29 28 29 28 26 26 33 31 31 26 29 29 29 26
Wind_Direction_500mb
90 96 92 76 62 111 136 130 155 212 285 233 250 256 239 242 232 231 236 243 246 259
72 73 65 82 62 44 73 86 84 92 93 39 155 257 237 247 241 234 239 243 249 253
52 52 66 73 80 17 43 160 226 297 298 312 321 298 257 269 254 245 244 243 243 248
35 27 17 33 17 12 347 336 321 281 288 289 286 272 268 267 264 262 260 259 261 257
16 5 1 346 342 354 338 330 354 312 294 281 292 301 288 276 259 270 276 271 266 266
11 357 336 333 323 306 311 320 328 345 287 271 275 273 281 280 275 275 277 281 273 274
3 7 339 351 347 322 303 285 292 293 295 282 285 276 280 282 286 287 280 286 290 286
360 343 346 340 344 338 339 322 295 278 278 291 281 255 269 266 285 288 294 298 293 288
340 349 337 329 334 324 321 314 317 322 310 289 275 267 270 268 268 283 290 290 288 294
334 335 327 322 320 310 309 308 313 313 306 300 293 274 269 270 272 274 280 281 284 287
328 328 317 313 310 309 304 300 298 298 300 300 300 293 298 283 274 274 273 276 278 279
320 319 314 312 310 310 304 297 293 295 295 297 299 299 303 299 292 285 274 275 273 271
309 307 309 305 303 302 303 297 295 290 294 296 301 303 300 301 302 293 290 288 287 283
298 295 299 300 297 295 290 289 290 292 293 293 292 287 294 303 305 294 285 285 289 285
Wind_Speed_850mb
29 30 29 26 17 13 13 11 5 3 4 6 9 16 23 23 37 63 75 76 78 80
36 33 28 17 16 10 13 10 6 6 2 2 1 7 15 24 33 40 46 50 51 53
39 32 28 21 9 6 3 4 1 5 5 3 2 4 6 16 28 37 45 46 42 44
38 35 31 25 14 10 9 7 1 6 10 11 9 9 10 13 16 21 28 38 45 48
44 38 36 27 24 23 15 13 8 6 6 7 5 7 7 8 13 16 23 26 32 33
38 35 33 32 29 25 21 22 11 9 8 12 6 9 7 8 10 11 15 23 26 30
28 22 18 20 20 19 24 33 26 19 11 13 9 13 9 9 11 9 10 15 18 23
23 19 21 20 19 19 19 19 20 20 17 14 8 19 19 15 13 13 12 13 16 18
25 26 26 25 21 22 21 20 19 19 20 21 15 31 24 24 23 17 17 16 19 18
28 28 31 30 26 24 27 25 23 22 22 20 19 34 33 32 30 29 23 24 24 24
32 29 29 29 28 28 28 29 25 23 23 22 18 27 24 31 38 35 32 30 29 31
34 33 33 32 32 32 31 29 28 26 25 23 23 29 24 26 24 22 28 32 34 35
34 35 38 39 38 36 30 29 29 29 28 27 28 31 34 30 22 24 25 26 26 31
37 36 36 37 34 32 30 28 29 28 29 28 26 26 33 31 31 26 29 29 29 26
Wind_Direction_850mb
90 96 92 76 62 111 136 130 155 212 285 233 250 256 239 242 232 231 236 243 246 259
72 73 65 82 62 44 73 86 84 92 93 39 155 257 237 247 241 234 239 243 249 253
52 52 66 73 80 17 43 160 226 297 298 312 321 298 257 269 254 245 244 243 243 248
35 27 17 33 17 12 347 336 321 281 288 289 286 272 268 267 264 262 260 259 261 257
16 5 1 346 342 354 338 330 354 312 294 281 292 301 288 276 259 270 276 271 266 266
11 357 336 333 323 306 311 320 328 345 287 271 275 273 281 280 275 275 277 281 273 274
3 7 339 351 347 322 303 285 292 293 295 282 285 276 280 282 286 287 280 286 290 286
360 343 346 340 344 338 339 322 295 278 278 291 281 255 269 266 285 288 294 298 293 288
340 349 337 329 334 324 321 314 317 322 310 289 275 267 270 268 268 283 290 290 288 294
334 335 327 322 320 310 309 308 313 313 306 300 293 274 269 270 272 274 280 281 284 287
328 328 317 313 310 309 304 300 298 298 300 300 300 293 298 283 274 274 273 276 278 279
320 319 314 312 310 310 304 297 293 295 295 297 299 299 303 299 292 285 274 275 273 271
309 307 309 305 303 302 303 297 295 290 294 296 301 303 300 301 302 293 290 288 287 283
298 295 299 300 297 295 290 289 290 292 293 293 292 287 294 303 305 294 285 285 289 285